Regional Weather Roundup
Issued by NWS

Home | Current Version | Previous Version | Graphics & Text | Print | Product List | Glossary On
Versions: 1 2 3 4 5 6 7 8 9 10 11 12 13 14 15 16 17 18 19 20 21 22 23 24 25 26 27 28 29 30 31 32 33 34 35 36 37 38 39 40 41 42 43 44 45 46 47 48 49 50
403
ASUS43 KLSX 220807
RWRMO

WEATHER SUMMARY FOR MISSOURI
NATIONAL WEATHER SERVICE SPRINGFIELD MO
300 AM CDT TUE AUG 22 2017

NOTE: "FAIR" INDICATES FEW OR NO CLOUDS BELOW 12,000 FEET WITH NO
       SIGNIFICANT WEATHER AND/OR OBSTRUCTIONS TO VISIBILITY.
       CURRENT SKY AND/OR WEATHER CONDITIONS ARE NOT AVAILABLE FOR
       CHILLICOTHE AND FARMINGTON.

MOZ001>031-035>038-043-044-053-054-220900-
...NORTHERN AND WESTERN MISSOURI...

CITY           SKY/WX    TMP DP  RH WIND       PRES   REMARKS
KANSAS CTY INT TSTM      65  65 100 NE16      30.01R
KANSAS C DTWN  HVY RAIN  70  68  93 NE17G25   30.00R FOG
LEE`S SUMMIT   HVY RAIN  69  69 100 MISG      30.02R FOG
ST JOSEPH      LGT RAIN  66  65  96 SE6       29.96F
CHILLICOTHE      N/A     68  68 100 SW3       30.01R
KIRKSVILLE     RAIN      69  67  93 N8        30.02R FOG

$$
MOZ066>068-077>081-088>096-101>105-220900-
...SOUTHWEST MISSOURI...

CITY           SKY/WX    TMP DP  RH WIND       PRES   REMARKS
SPRINGFIELD    CLOUDY    78  73  84 SW12      30.00S
JOPLIN         CLOUDY    81  74  79 SW14      29.98F
BRANSON        CLEAR     75  72  88 SW6       30.04F

$$
MOZ032>034-039>042-045>050-055>058-069>072-220900-
...CENTRAL MISSOURI...

CITY           SKY/WX    TMP DP  RH WIND       PRES   REMARKS
COLUMBIA       LGT RAIN  71  70  96 N8        29.98F
JEFFERSON CITY LGT RAIN  76  71  85 N9        29.97S
ROLLA          CLOUDY    76  73  91 S7        29.99F
SEDALIA        TSTM      71  71 100 NE5       29.99F FOG
WHITEMAN AFB   TSTM      70  70 100 E5        29.95F FOG
WARRENSBURG    TSTM      68  68 100 CALM      29.97R
OSAGE BEACH    CLOUDY    80  73  79 VRB3      29.97F

$$
MOZ051-052-059>065-220900-
...EAST CENTRAL MISSOURI...

CITY           SKY/WX    TMP DP  RH WIND       PRES   REMARKS
ST LOUIS INTL  CLOUDY    82  73  74 SW16      29.95S
SPIRIT OF STL  CLOUDY    82  74  76 SW13      29.92F
ST CHARLES     CLOUDY    80  74  81 SW13      29.92S

$$
MOZ072>076-082>087-097>100-106>115-220900-
...SOUTH CENTRAL AND SOUTHEAST MISSOURI...

CITY           SKY/WX    TMP DP  RH WIND       PRES   REMARKS
CAPE GIRARDEAU CLEAR     77  74  90 S6        29.98F
FARMINGTON     CLEAR     77  73  87 S9        30.01S
POPLAR BLUFF   CLEAR     76  75  97 SW5       29.99F
WEST PLAINS    CLEAR     77  73  87 SW10G18   30.04F

$$



USA.gov is the U.S. government's official web portal to all federal, state and local government web resources and services.